Probability
0 0 0 0 0 0 0 0 0 0 0 0 0 0 0 0 0 0 0 0 0 0 0 0 0 0 0 0 0 0 0 0 0 0 0 0 0 0 0 0 0 0 0
0 0 0 0 0 0 0 0 0 0 0 0 0 0 0 0 0 0 0 0 0 0 0 0 0 0 0 0 0 0 0 0 0 0 0 0 0 0 0 0 0 0 0
0 0 0 0 0 0 0 0 0 0 0 0 0 0 0 0 0 0 0 0 0 0 0 0 0 0 0 0 0 0 0 0 0 0 0 0 0 0 0 0 0 0 0
0 0 0 0 0 0 0 0 0 0 0 0 0 0 0 0 0 0 0 0 0 0 0 0 0 0 0 0 0 0 0 0 0 0 0 0 0 0 0 0 0 0 0
0 0 0 0 0 0 0 0 0 0 0 0 0 0 0 0 0 0 0 0 0 0 0 0 0 0 0 0 0 0 0 0 0 0 0 0 0 0 0 0 0 0 0
0 0 0 0 0 0 0 0 0 0 0 0 0 0 0 0 0 0 0 0 0 0 0 0 0 0 0 0 0 0 0 0 0 0 0 0 0 0 0 0 0 0 0
0 0 0 0 0 0 0 0 0 0 0 0 0 0 0 0 0 0 0 0 0 0 0 0 0 0 0 0 0 0 0 0 0 0 0 0 0 0 0 0 0 0 0
0 0 0 0 0 0 0 0 0 0 0 0 0 0 0 0 0 0 0 0 0 0 0 0 0 0 0 0 0 0 0 0 0 0 0 0 0 0 0 0 0 0 0
0 0 0 0 0 0 0 0 0 0 0 0 0 0 0 0 0 0 0 0 0 0 0 0 0 0 0 0 0 0 0 0 0 0 0 0 0 0 0 0 0 0 0
0 0 0 0 0 0 0 0 0 0 0 0 0 0 0 0 0 0 0 0 0 0 0 0 0 0 0 0 0 0 0 0 0 0 0 0 0 0 0 0 0 0 0
0 0 0 0 0 0 0 0 0 0 0 0 0 0 0 0 0 0 0 0 0 0 0 0 0 0 0 0 0 0 0 0 0 0 0 0 0 0 0 0 0 0 0
0 0 0 0 0 0 0 0 0 0 0 0 0 0 0 0 0 0 0 0 0 0 0 0 0 0 0 0 0 0 0 0 0 0 0 0 0 0 0 0 0 0 0
0 0 0 0 0 0 0 0 0 0 0 0 0 0 0 0 0 0 0 0 0 0 0 0 0 0 0 0 0 0 0 0 0 0 0 0 0 0 0 0 0 0 0
0 0 0 0 0 0 0 0 0 0 0 0 0 0 0 0 0 0 0 0 0 0 0 0 0 0 0 0 0 0 0 0 0 0 0 0 0 0 0 0 0 0 0
0 0 0 0 0 0 0 0 0 0 0 0 0 0 0 0 0 0 0 0 0 0 0 0 0 0 0 0 0 0 0 0 0 0 0 0 0 0 0 0 0 0 0
0 0 0 0 0 0 0 0 0 0 0 0 0 0 0 0 0 0 0 0 0 0 0 0 0 0 0 0 0 0 0 0 0 0 0 0 0 0 0 0 0 0 0
0 0 0 0 0 0 0 0 0 0 0 0 0 0 0 0 0 0 0 0 0 0 0 0 0 0 0 0 0 0 0 0 0 0 0 0 0 0 0 0 0 0 0
0 0 0 0 0 0 0 0 0 0 0 0 0 0 0 0 0 0 0 0 0 0 0 0 0 0 0 0 0 0 0 0 0 0 0 0 0 0 0 0 0 0 0
0 0 0 0 0 0 0 0 0 0 0 0 0 0 0 0 0 0 0 0 0 0 0 0 0 0 0 0 0 0 0 0 0 0 0 0 0 0 0 0 0 0 0
0 0 0 0 0 0 0 0 0 0 0 0 0 0 0 0 0 0 0 0 0 0 0 0 0 0 0 0 0 0 0 0 0 0 0 0 0 0 0 0 0 0 0
0 0 0 0 0 0 0 0 0 0 0 0 0 0 0 0 0 0 0 0 0 0 0 0 0 0 0 0 0 0 0 0 0 0 0 0 0 0 0 0 0 0 0
0 0 0 0 0 0 0 0 0 0 0 0 0 0 0 0 0 0 0 0 0 0 0 0 0 0 0 0 0 0 0 0 0 0 0 0 0 0 0 0 0 0 0
0 0 0 0 0 0 0 0 0 0 0 0 0 0 0 0 0 0 0 0 0 0 0 0 0 0 0 0 0 0 0 0 0 0 0 0 0 0 0 0 0 0 0
0 0 0 0 0 0 0 0 0 0 0 0 0 0 0 0 0 0 0 0 0 0 0 0 0 0 0 0 0 0 0 0 0 0 0 0 0 0 0 0 0 0 0
0 0 0 0 0 0 0 0 0 0 0 0 0 0 0 0 0 0 0 0 0 0 0 0 0 0 0 0 0 0 0 0 0 0 0 0 0 0 0 0 0 0 0
0 0 0 0 0 0 0 0 0 0 0 0 0 0 0 0 0 0 0 0 0 0 0 0 0 0 0 0 0 0 0 0 0 0 0 0 0 0 0 0 0 0 0
Height
5822 5822 5822 5822 5821 5821 5820 5820 5819 5819 5818 5817 5817 5816 5815 5814 5813 5813 5811 5810 5809 5808 5807 5806 5805 5804 5803 5802 5801 5800 5799 5798 5797 5796 5796 5795 5795 5795 5795 5795 5796 5797 5798
5816 5815 5815 5814 5814 5813 5812 5812 5811 5811 5810 5809 5808 5807 5806 5805 5804 5803 5802 5801 5799 5798 5797 5795 5794 5793 5792 5791 5790 5789 5787 5787 5786 5785 5784 5784 5783 5783 5783 5783 5784 5784 5785
5808 5807 5807 5806 5805 5804 5804 5803 5803 5802 5801 5799 5798 5797 5796 5795 5794 5793 5791 5790 5789 5787 5785 5784 5782 5781 5780 5779 5778 5777 5776 5774 5773 5773 5772 5771 5771 5771 5771 5771 5771 5772 5772
5800 5799 5798 5797 5796 5795 5794 5794 5793 5792 5790 5789 5788 5786 5785 5784 5783 5781 5780 5779 5777 5775 5773 5772 5770 5769 5767 5766 5765 5764 5763 5762 5761 5760 5759 5758 5758 5758 5758 5758 5758 5758 5759
5791 5790 5789 5788 5786 5785 5784 5783 5782 5780 5779 5777 5776 5774 5773 5772 5771 5769 5768 5766 5764 5763 5761 5759 5757 5755 5754 5752 5751 5750 5749 5748 5747 5746 5745 5745 5744 5744 5744 5744 5744 5745 5745
5783 5781 5780 5778 5776 5775 5774 5772 5770 5769 5768 5765 5763 5762 5761 5759 5757 5756 5755 5753 5751 5749 5747 5745 5743 5742 5740 5738 5737 5736 5734 5734 5733 5732 5731 5731 5730 5730 5730 5730 5730 5731 5731
5774 5772 5771 5769 5767 5765 5763 5761 5758 5757 5755 5752 5750 5749 5748 5745 5744 5743 5741 5739 5737 5735 5733 5731 5729 5727 5726 5724 5722 5721 5720 5719 5718 5717 5716 5716 5715 5715 5715 5715 5715 5716 5716
5765 5763 5761 5759 5756 5754 5752 5749 5746 5744 5742 5738 5735 5733 5733 5733 5731 5728 5725 5724 5722 5720 5718 5715 5714 5712 5710 5708 5707 5706 5705 5704 5703 5702 5701 5701 5700 5700 5699 5699 5700 5700 5701
5756 5753 5751 5748 5745 5742 5740 5737 5733 5730 5727 5724 5720 5717 5715 5716 5716 5713 5710 5708 5706 5704 5702 5699 5697 5695 5693 5692 5691 5690 5689 5688 5687 5686 5685 5685 5684 5684 5684 5684 5684 5684 5685
5747 5744 5741 5737 5734 5731 5728 5724 5720 5716 5712 5709 5706 5701 5698 5696 5694 5695 5697 5693 5690 5687 5685 5682 5680 5678 5676 5675 5674 5673 5672 5671 5670 5670 5669 5669 5668 5668 5668 5668 5668 5668 5669
5737 5734 5730 5726 5723 5719 5715 5711 5706 5702 5697 5693 5689 5686 5682 5678 5674 5672 5675 5676 5672 5670 5667 5664 5662 5659 5658 5657 5656 5655 5654 5653 5653 5653 5653 5652 5652 5651 5651 5651 5651 5652 5652
5727 5722 5718 5714 5710 5705 5701 5696 5691 5686 5681 5677 5672 5667 5663 5660 5656 5651 5650 5652 5652 5652 5648 5645 5643 5642 5639 5638 5637 5636 5635 5635 5635 5635 5635 5635 5635 5634 5634 5634 5634 5635 5635
5716 5710 5705 5701 5695 5690 5685 5679 5674 5669 5663 5658 5653 5648 5643 5639 5635 5630 5627 5628 5628 5629 5628 5627 5625 5622 5620 5618 5617 5616 5616 5616 5616 5617 5617 5617 5617 5617 5617 5616 5617 5617 5618
5703 5697 5691 5686 5680 5674 5667 5661 5655 5649 5643 5637 5632 5626 5621 5617 5612 5608 5605 5602 5602 5605 5606 5608 5605 5602 5600 5597 5597 5595 5597 5596 5597 5597 5598 5599 5599 5599 5599 5599 5599 5599 5600
5688 5682 5675 5669 5662 5655 5648 5641 5635 5628 5621 5615 5609 5602 5597 5593 5588 5584 5580 5577 5575 5577 5584 5587 5583 5582 5578 5576 5575 5574 5576 5576 5576 5577 5578 5579 5579 5580 5580 5580 5580 5581 5581
5671 5665 5658 5650 5643 5635 5626 5618 5611 5604 5596 5591 5583 5577 5572 5568 5562 5559 5555 5553 5549 5549 5555 5565 5561 5558 5555 5554 5553 5553 5554 5554 5555 5556 5557 5558 5559 5560 5560 5561 5561 5562 5563
5653 5645 5637 5629 5621 5612 5602 5594 5586 5578 5571 5564 5557 5551 5547 5541 5536 5533 5529 5527 5526 5524 5527 5538 5536 5535 5532 5532 5531 5531 5532 5533 5534 5535 5536 5537 5538 5539 5540 5541 5542 5542 5543
5633 5624 5615 5606 5597 5587 5577 5567 5559 5551 5544 5538 5531 5524 5520 5514 5511 5508 5504 5503 5502 5501 5501 5509 5513 5511 5511 5510 5509 5509 5511 5512 5513 5514 5514 5516 5517 5518 5520 5521 5522 5522 5523
5611 5601 5591 5581 5571 5561 5551 5541 5532 5525 5517 5511 5505 5499 5495 5489 5486 5483 5480 5479 5479 5478 5478 5483 5489 5488 5488 5488 5487 5488 5489 5490 5492 5493 5493 5495 5496 5498 5499 5500 5501 5502 5503
5588 5578 5567 5556 5545 5535 5525 5515 5506 5499 5493 5486 5480 5475 5471 5466 5463 5460 5458 5457 5456 5456 5457 5459 5465 5466 5466 5466 5466 5468 5468 5469 5470 5471 5473 5474 5476 5477 5479 5480 5481 5482 5482
5564 5553 5542 5531 5520 5509 5500 5491 5483 5476 5470 5465 5459 5454 5449 5445 5441 5439 5437 5437 5436 5436 5436 5438 5442 5443 5445 5445 5446 5446 5446 5447 5449 5451 5452 5454 5455 5457 5458 5459 5460 5460 5461
5541 5529 5518 5507 5498 5487 5477 5468 5460 5455 5450 5445 5440 5435 5431 5427 5423 5420 5419 5418 5417 5417 5418 5418 5421 5423 5424 5424 5424 5424 5425 5427 5431 5433 5431 5434 5435 5437 5438 5438 5438 5438 5439
5519 5507 5496 5485 5477 5468 5457 5449 5441 5435 5430 5426 5421 5417 5413 5410 5406 5403 5401 5400 5400 5399 5400 5400 5402 5404 5404 5404 5403 5405 5406 5407 5410 5410 5411 5414 5415 5416 5417 5416 5416 5417 5418
5496 5486 5476 5466 5457 5449 5439 5431 5424 5418 5413 5408 5403 5398 5395 5393 5389 5387 5385 5384 5384 5383 5382 5382 5384 5386 5385 5385 5385 5386 5386 5388 5390 5391 5392 5395 5395 5396 5396 5396 5396 5397 5398
5477 5467 5458 5448 5440 5432 5423 5415 5408 5402 5397 5392 5387 5382 5379 5376 5374 5370 5369 5369 5369 5368 5366 5365 5366 5367 5368 5368 5367 5368 5368 5369 5371 5372 5372 5374 5376 5375 5376 5377 5377 5377 5377
5458 5449 5441 5432 5423 5416 5408 5400 5393 5387 5382 5377 5373 5368 5364 5361 5359 5356 5354 5354 5354 5353 5351 5350 5350 5350 5350 5351 5350 5351 5351 5351 5353 5354 5354 5354 5356 5355 5358 5359 5358 5358 5358
Wind_Speed
31 32 32 33 34 34 35 35 36 36 37 37 38 38 39 39 39 39 40 40 41 41 42 42 43 43 44 44 44 45 45 45 45 45 45 46 46 47 48 49 49 50 50
35 36 36 37 38 39 40 40 40 41 42 42 43 43 44 44 44 44 44 44 45 45 46 46 47 47 47 48 48 48 48 48 48 48 48 48 48 48 49 50 50 51 52
37 38 39 40 42 43 43 44 44 45 46 47 48 48 48 48 48 48 49 49 49 49 50 50 50 50 51 51 51 51 52 52 52 51 51 51 51 50 50 51 51 52 52
39 40 41 42 44 45 46 47 48 48 49 50 51 52 52 52 52 52 52 52 53 53 53 54 54 54 54 54 55 55 55 55 54 54 54 53 53 52 52 52 52 53 53
40 41 42 43 45 46 47 48 49 50 51 52 54 55 55 55 55 56 56 56 56 56 56 57 57 57 57 57 57 57 57 57 56 56 56 55 54 54 54 53 53 53 54
40 42 43 44 46 47 48 50 51 52 53 54 56 56 57 57 58 58 58 58 59 59 59 59 60 59 59 60 59 59 59 58 58 58 57 56 56 55 55 55 55 54 54
40 42 42 44 46 47 48 50 52 53 54 56 57 57 58 59 59 59 60 60 60 61 61 62 62 62 62 62 62 62 61 60 60 59 58 58 57 57 57 56 55 55 55
40 42 43 45 47 48 50 51 53 54 55 57 59 60 60 60 60 61 62 62 62 63 63 63 64 64 64 65 64 64 63 62 62 61 60 59 59 58 58 57 56 55 55
41 42 44 46 47 49 51 52 54 56 57 59 61 62 63 62 62 63 64 64 64 65 65 65 66 66 67 67 67 66 65 64 63 62 61 60 60 59 59 58 57 57 56
41 43 45 47 49 50 52 54 56 58 60 61 63 64 66 66 67 65 64 65 66 67 67 67 68 69 70 70 69 68 67 66 65 64 62 61 61 60 60 59 58 58 57
43 45 47 49 51 53 54 56 59 61 63 64 66 67 68 70 71 71 68 67 68 68 69 70 71 72 72 72 71 70 69 68 66 65 63 62 61 61 60 60 60 59 59
46 48 50 52 54 56 58 60 62 64 66 67 69 70 72 73 73 75 74 72 71 70 71 72 72 72 73 73 72 71 70 69 68 67 65 64 63 63 62 62 61 61 60
49 52 54 56 58 60 62 64 66 68 70 71 73 74 75 76 77 78 78 77 76 74 74 73 72 73 73 73 73 72 71 70 69 68 67 65 64 64 63 63 63 62 62
54 56 59 61 64 66 68 70 72 74 75 76 77 78 79 79 80 80 80 80 79 77 76 73 73 73 73 73 73 73 72 71 70 69 68 67 66 65 64 63 63 63 63
60 62 65 67 69 72 74 76 78 79 81 81 82 82 82 82 82 82 82 82 82 80 76 74 74 73 73 73 74 74 72 72 71 70 69 67 66 66 65 64 64 64 64
66 68 71 73 75 77 79 81 82 83 84 84 84 84 84 84 83 83 83 82 82 81 78 73 74 74 74 74 74 73 72 72 71 71 70 68 67 67 66 65 65 64 64
71 74 76 79 81 83 84 85 85 85 85 85 85 85 84 84 84 83 83 82 81 80 78 73 74 74 74 74 74 73 72 72 71 71 70 69 68 67 66 66 65 65 65
76 79 81 83 85 86 87 86 86 85 85 84 83 83 82 81 81 80 80 80 79 78 77 74 72 73 73 73 73 73 72 71 71 71 70 69 69 68 67 66 66 66 66
81 84 86 87 87 87 86 85 85 83 82 81 79 79 77 77 76 75 75 75 74 74 74 72 69 70 71 71 71 70 70 70 70 69 69 69 68 67 66 66 66 66 66
85 87 88 88 87 85 84 82 80 78 76 75 74 72 71 71 70 70 70 69 69 69 69 68 67 67 68 68 68 67 67 67 67 68 68 67 67 67 67 67 67 66 66
88 88 88 86 83 81 78 76 74 73 71 69 67 66 65 65 65 65 64 64 64 64 64 64 63 64 65 66 66 66 67 66 66 66 66 66 67 67 67 67 67 67 67
88 86 84 81 77 74 72 71 70 68 66 64 62 61 60 60 60 60 60 60 60 60 59 59 59 59 60 62 63 65 65 65 65 65 67 67 67 66 66 66 66 66 65
85 82 78 75 71 69 68 66 65 64 62 60 58 57 57 56 57 57 57 58 57 57 57 56 56 56 58 60 61 62 63 63 64 65 65 64 64 63 64 64 64 64 64
80 76 72 68 66 64 63 61 60 59 57 56 55 54 54 53 53 53 53 53 54 54 55 55 54 53 54 55 57 59 60 61 62 62 63 63 62 62 62 63 63 63 64
74 70 66 64 62 59 59 58 57 56 54 53 51 50 50 50 49 50 50 49 49 49 51 52 52 52 52 53 54 55 56 57 58 59 60 60 60 60 60 60 60 61 62
69 65 62 60 58 56 55 54 53 52 50 48 47 46 46 46 46 46 46 46 45 46 47 48 49 49 50 50 51 52 53 54 54 55 56 57 57 58 58 57 58 59 60
Wind_Direction
265 265 266 266 267 267 268 269 270 271 272 273 274 276 277 278 279 281 282 283 283 284 284 285 285 285 285 285 285 285 284 283 282 280 278 277 275 273 270 268 266 265 263
267 267 267 268 268 269 270 270 271 272 273 274 275 276 277 279 280 281 282 283 284 284 285 285 285 285 285 285 285 285 285 284 283 282 281 279 277 275 273 271 269 267 265
270 270 270 270 270 271 271 272 273 274 274 275 276 277 278 279 280 281 282 283 284 284 285 285 285 285 285 285 285 285 285 285 284 283 282 280 278 276 274 273 271 269 268
272 272 273 273 273 274 274 274 274 275 275 276 276 277 279 279 280 281 282 283 283 284 284 284 285 285 285 285 285 285 285 285 284 283 282 281 279 277 276 274 273 271 269
275 275 276 276 276 276 276 276 276 276 276 277 277 278 279 279 280 281 281 282 283 283 283 284 284 284 284 284 285 285 285 284 284 283 282 281 280 278 276 275 273 272 270
278 278 278 278 278 279 279 279 279 279 279 278 278 279 279 279 280 281 281 282 282 282 282 283 283 283 283 283 284 284 284 284 284 283 282 281 280 278 277 276 274 272 270
283 283 283 283 283 282 282 281 281 281 280 280 280 280 279 279 280 280 280 280 280 280 281 282 282 282 282 282 282 283 283 283 283 282 281 280 279 278 277 276 274 272 270
286 286 286 285 284 284 284 284 283 283 283 282 282 281 280 280 280 280 279 279 279 280 280 280 280 281 280 281 281 282 282 282 282 281 280 279 279 278 277 275 274 273 271
287 287 287 287 287 286 286 285 285 284 284 283 283 283 282 281 279 278 278 279 279 278 278 278 279 279 279 280 280 281 281 281 281 280 279 278 278 277 276 274 273 272 271
289 289 288 288 288 288 287 286 286 285 285 284 284 283 283 283 281 279 277 277 277 277 277 277 277 277 277 278 279 279 280 280 279 279 278 278 277 277 275 274 273 272 271
291 290 289 289 289 288 288 287 286 286 285 285 284 283 283 282 282 281 279 276 275 275 274 274 275 275 276 277 277 278 278 278 278 278 277 277 276 276 275 274 273 272 271
292 291 291 291 290 290 289 288 287 287 286 285 284 283 282 282 281 280 279 278 276 274 273 273 273 273 274 274 275 275 275 276 276 276 276 276 275 275 274 273 272 272 271
294 293 293 292 292 291 290 289 288 287 286 285 283 282 281 281 280 279 278 277 276 275 273 273 272 272 272 272 272 273 273 274 274 275 274 274 274 274 273 272 271 271 270
294 294 293 293 292 291 290 289 288 287 286 284 283 282 281 280 278 278 277 276 275 274 273 273 271 271 270 270 271 271 271 272 272 273 273 273 273 273 272 272 270 270 269
295 295 294 293 292 292 290 289 288 287 286 284 283 282 281 279 278 276 275 274 274 273 271 271 270 270 269 269 269 269 270 271 271 271 271 271 271 271 271 270 269 269 269
297 296 295 294 293 292 291 290 289 287 286 284 283 281 280 278 277 275 274 273 272 272 270 269 268 268 267 268 268 268 269 269 269 270 270 270 270 270 270 269 269 269 268
297 297 296 296 295 294 293 292 290 288 286 285 283 281 280 278 276 275 273 272 271 271 270 268 267 267 267 267 267 267 267 268 268 268 269 269 269 269 269 268 268 268 268
299 298 298 297 296 295 294 293 291 289 287 285 283 282 280 279 277 275 274 273 272 271 270 269 267 267 267 267 267 267 267 266 267 267 267 267 268 268 268 267 268 269 269
300 300 300 299 298 297 295 293 292 290 288 286 285 283 281 279 278 276 275 274 272 271 270 270 268 267 267 267 267 267 266 266 266 266 266 266 266 267 267 267 268 268 269
302 302 301 300 299 298 296 294 293 291 290 288 287 285 283 281 279 277 276 275 273 272 270 269 268 267 267 266 266 266 266 265 265 265 265 265 266 266 267 267 267 268 268
304 303 303 302 300 299 297 295 294 292 291 289 287 286 284 282 280 278 276 275 274 273 272 271 268 267 266 265 265 264 264 264 264 265 265 266 266 267 266 267 268 268 268
305 305 304 302 301 299 297 296 294 293 292 290 288 286 284 283 281 279 277 276 274 274 273 272 270 268 267 266 264 264 263 263 264 265 265 266 267 267 267 267 267 267 267
306 305 304 303 302 300 298 297 295 295 294 292 290 287 284 283 281 280 278 277 276 275 273 272 271 269 268 266 265 265 265 265 265 265 265 266 267 267 267 267 266 266 266
307 306 305 304 303 301 299 298 297 296 296 294 291 289 286 284 282 281 279 277 276 276 274 273 272 270 268 268 268 268 267 266 265 266 266 266 267 267 267 267 267 267 267
308 307 306 305 304 303 301 300 299 298 297 295 293 290 288 286 284 282 280 279 277 277 275 274 273 271 270 270 269 269 268 268 267 267 267 267 267 266 266 267 267 267 267
308 308 307 307 306 305 304 303 302 301 299 297 294 291 289 288 286 284 282 281 279 278 276 275 274 273 272 271 271 270 269 269 268 268 268 267 266 266 266 267 268 268 268